This is the latest recevied weather packets stored in our database for station/object 4S6DRJ-13. If no packets are shown the sender has not sent any weather packets the latest 10 day(s).
| Time | Temp. | Humidity | Pressure | Rain* | Wind** | Luminosity | Snow |
|---|---|---|---|---|---|---|---|
| 1777596784 | 26.67° C | 90% | 1007.6 hPa | 0 mm | 1.34 m/s, 113° | 43 W/m² | - |
| 1777596723 | 26.67° C | 90% | 1007.4 hPa | 0 mm | 1.79 m/s, 153° | 40 W/m² | - |
| 1777596662 | 26.67° C | 90% | 1007.4 hPa | 0 mm | 1.34 m/s, 161° | 37 W/m² | - |
| 1777596601 | 26.67° C | 90% | 1007.4 hPa | 0 mm | 0.89 m/s, 102° | 35 W/m² | - |
| 1777596540 | 26.67° C | 90% | 1007.5 hPa | 0 mm | 0.89 m/s, 153° | 34 W/m² | - |
| 1777596479 | 26.67° C | 90% | 1007.4 hPa | 0 mm | 1.34 m/s, 138° | 32 W/m² | - |
| 1777596418 | 26.67° C | 90% | 1007.4 hPa | 0 mm | 1.79 m/s, 134° | 31 W/m² | - |
| 1777596357 | 26.67° C | 90% | 1007.5 hPa | 0 mm | 1.79 m/s, 129° | 28 W/m² | - |
| 1777596296 | 26.67° C | 90% | 1007.5 hPa | 0 mm | 0.45 m/s, 147° | 26 W/m² | - |
| 1777596235 | 26.67° C | 91% | 1007.5 hPa | 0 mm | 0.45 m/s, 151° | 23 W/m² | - |
| 1777596174 | 26.67° C | 90% | 1007.4 hPa | 0 mm | 0.89 m/s, 127° | 22 W/m² | - |
| 1777596113 | 26.67° C | 91% | 1007.4 hPa | 0 mm | 1.34 m/s, 135° | 20 W/m² | - |
| 1777595991 | 26.67° C | 91% | 1007.4 hPa | 0 mm | 1.34 m/s, 105° | 16 W/m² | - |
| 1777595930 | 26.67° C | 91% | 1007.4 hPa | 0 mm | 0.89 m/s, 103° | 14 W/m² | - |
| 1777595869 | 26.67° C | 91% | 1007.4 hPa | 0 mm | 0.89 m/s, 122° | 13 W/m² | - |
| 1777595808 | 26.67° C | 91% | 1007.3 hPa | 0 mm | 0.45 m/s, 118° | 12 W/m² | - |
| 1777595747 | 26.67° C | 91% | 1007.4 hPa | 0 mm | 0.45 m/s, 135° | 10 W/m² | - |
| 1777595686 | 26.67° C | 91% | 1007.4 hPa | 0 mm | 0.45 m/s, 120° | 9 W/m² | - |
| 1777595624 | 26.67° C | 91% | 1007.2 hPa | 0 mm | 0.89 m/s, 121° | 8 W/m² | - |
| 1777595563 | 26.67° C | 91% | 1007.2 hPa | 0 mm | 0.89 m/s, 133° | 7 W/m² | - |
| 1777595502 | 26.11° C | 91% | 1007.3 hPa | 0 mm | 0 m/s | 6 W/m² | - |
| 1777595441 | 26.11° C | 91% | 1007.4 hPa | 0 mm | 0.89 m/s, 112° | 5 W/m² | - |
| 1777595381 | 26.11° C | 91% | 1007.4 hPa | 0 mm | 0.89 m/s, 124° | 4 W/m² | - |
| 1777595319 | 26.11° C | 91% | 1007.4 hPa | 0 mm | 0.89 m/s, 132° | 4 W/m² | - |
| 1777595258 | 26.11° C | 91% | 1007.4 hPa | 0 mm | 1.79 m/s, 111° | 3 W/m² | - |
* Rain latest hour (hover to see other rain measurements)
** Current wind speed in m/s (hover to see current wind gust speed)